User: anonymous   Login
Location: Unspecified
(0.0000°N, 0.0000°E)
Time: 13:04:01
(UTC+00:00)
Language:

NOSS 2-1 (E) - Orbit

View from above orbital plane
View from above orbital plane
View from above satellite
View from above satellite

Ground track
Ground track

The orbit data is extracted from the following two-line orbital elements,

1 20642U 90050E   21007.22262227 0.00000200  00000-0  27810-4 0    00
2 20642  63.3159  59.9611 0887840  46.9580 313.0420 13.42148515    08
Epoch (UTC): 07 January 2021 05:20:34
Eccentricity: 0.0887840
inclination: 63.3159°
perigee height: 437 km
apogee height: 1765 km
right ascension of ascending node: 59.9611°
argument of perigee: 46.9580°
revolutions per day: 13.42148515
mean anomaly at epoch: 313.0420°
orbit number at epoch: 0

The dashed part of the orbit path shows where the satellite is in the earth's shadow,  

DLR